TimeCST,TemperatureF,Dew PointF,Humidity,Sea Level PressureIn,VisibilityMPH,Wind Direction,Wind SpeedMPH,Gust SpeedMPH,PrecipitationIn,Events,Conditions,WindDirDegrees,DateUTC
12:53 AM,37.0,28.9,73,30.23,10.0,Calm,Calm,-,N/A,,Overcast,0,2013-11-26 06:53:00
1:53 AM,36.0,28.9,76,30.23,10.0,Calm,Calm,-,N/A,,Overcast,0,2013-11-26 07:53:00
2:53 AM,34.0,28.9,82,30.22,10.0,Calm,Calm,-,N/A,,Overcast,0,2013-11-26 08:53:00
3:53 AM,28.9,26.1,89,30.22,9.0,Calm,Calm,-,N/A,,Clear,0,2013-11-26 09:53:00
4:53 AM,27.0,25.0,92,30.22,8.0,Calm,Calm,-,N/A,,Clear,0,2013-11-26 10:53:00
5:53 AM,28.0,25.0,88,30.23,8.0,Calm,Calm,-,N/A,,Clear,0,2013-11-26 11:53:00
6:53 AM,28.0,25.0,88,30.25,9.0,Calm,Calm,-,N/A,,Clear,0,2013-11-26 12:53:00
7:53 AM,28.9,26.1,89,30.26,9.0,Variable,3.5,-,N/A,,Clear,0,2013-11-26 13:53:00
8:53 AM,35.1,28.0,76,30.27,10.0,Variable,5.8,-,N/A,,Clear,0,2013-11-26 14:53:00
9:53 AM,41.0,28.9,62,30.27,10.0,Variable,6.9,-,N/A,,Clear,0,2013-11-26 15:53:00
10:53 AM,44.1,28.0,53,30.28,10.0,NNE,11.5,20.7,N/A,,Clear,20,2013-11-26 16:53:00
11:53 AM,46.0,27.0,47,30.26,10.0,NNE,17.3,25.3,N/A,,Partly Cloudy,20,2013-11-26 17:53:00
12:53 PM,46.9,26.1,44,30.26,10.0,North,16.1,23.0,0.01,,Partly Cloudy,10,2013-11-26 18:53:00
1:53 PM,46.9,26.1,44,30.26,10.0,North,9.2,25.3,N/A,,Mostly Cloudy,350,2013-11-26 19:53:00
2:53 PM,41.0,24.1,51,30.29,10.0,North,13.8,26.5,N/A,,Scattered Clouds,360,2013-11-26 20:53:00
3:53 PM,39.0,21.9,50,30.32,10.0,North,12.7,26.5,N/A,,Clear,360,2013-11-26 21:53:00
4:53 PM,36.0,21.9,57,30.34,10.0,North,6.9,-,N/A,,Clear,350,2013-11-26 22:53:00
5:53 PM,33.1,21.9,64,30.36,10.0,Calm,Calm,-,N/A,,Clear,0,2013-11-26 23:53:00
6:53 PM,30.9,21.0,67,30.38,10.0,Calm,Calm,-,N/A,,Clear,0,2013-11-27 00:53:00
7:53 PM,30.0,19.9,66,30.40,10.0,Calm,Calm,-,N/A,,Clear,0,2013-11-27 01:53:00
8:53 PM,28.9,18.0,64,30.41,10.0,Variable,3.5,-,N/A,,Clear,0,2013-11-27 02:53:00
9:53 PM,28.9,12.9,51,30.43,10.0,North,6.9,-,N/A,,Clear,350,2013-11-27 03:53:00
10:53 PM,28.0,12.0,51,30.45,10.0,North,5.8,-,N/A,,Clear,350,2013-11-27 04:53:00
11:53 PM,26.1,12.0,55,30.46,10.0,North,6.9,-,N/A,,Clear,360,2013-11-27 05:53:00